,,Stat5,,Stat1,,Stat2,,Stat3,,Stat4,,Wind1,,Wind1,
time,status,PA1M_AVG,status,PR1M_SUM,status,RH1M_AVG,status,SR1M_AVG,status,TA1M_AVG,status,W1dAve1m,status,W1sAve1m,
2001-10-28, 00:00:01,VALID,918.178,VALID,0,VALID,98.969,VALID,0,VALID,20.1319,VALID,143,VALID,0,
2001-10-28, 00:01:00,VALID,918.165,VALID,0,VALID,98.9601,VALID,-0.0169808,VALID,20.1222,VALID,143,VALID,0,
2001-10-28, 00:02:00,VALID,918.15,VALID,0,VALID,98.9614,VALID,-0.0169808,VALID,20.1286,VALID,145,VALID,0.0207648,
2001-10-28, 00:03:00,VALID,918.119,VALID,0,VALID,98.9652,VALID,-0.0169808,VALID,20.1319,VALID,175,VALID,0.160156,
2001-10-28, 00:04:00,VALID,918.109,VALID,0,VALID,98.9614,VALID,-0.0169808,VALID,20.1421,VALID,207,VALID,0.235938,
2001-10-28, 00:05:00,VALID,918.088,VALID,0,VALID,98.9448,VALID,0,VALID,20.103,VALID,218,VALID,0.272352,
2001-10-28, 00:06:00,VALID,918.082,VALID,0,VALID,98.9296,VALID,-0.0169808,VALID,20.0769,VALID,219,VALID,0.331715,
2001-10-28, 00:07:00,VALID,918.064,VALID,0,VALID,98.9258,VALID,0,VALID,20.0474,VALID,219,VALID,0.151521,
2001-10-28, 00:08:00,VALID,918.057,VALID,0,VALID,98.9245,VALID,-0.0169808,VALID,20.0282,VALID,219,VALID,0.023911,
2001-10-28, 00:09:00,VALID,918.036,VALID,0,VALID,98.9448,VALID,-0.0169808,VALID,20.0446,VALID,219,VALID,0,
2001-10-28, 00:10:00,VALID,918.029,VALID,0,VALID,98.9792,VALID,0.0169808,VALID,20.0667,VALID,219,VALID,0.0248047,
2001-10-28, 00:11:00,VALID,918.009,VALID,0,VALID,98.9804,VALID,0,VALID,20.0864,VALID,219,VALID,0.0314556,
2001-10-28, 00:12:00,VALID,917.987,VALID,0,VALID,98.9766,VALID,0,VALID,20.0963,VALID,219,VALID,0,
2001-10-28, 00:13:00,VALID,917.974,VALID,0,VALID,98.9779,VALID,-0.0169808,VALID,20.1127,VALID,219,VALID,0,
2001-10-28, 00:14:00,VALID,917.967,VALID,0,VALID,98.9817,VALID,-0.0339617,VALID,20.1028,VALID,219,VALID,0,
2001-10-28, 00:15:00,VALID,917.964,VALID,0,VALID,98.9842,VALID,0,VALID,20.1125,VALID,219,VALID,0,
2001-10-28, 00:16:00,VALID,917.949,VALID,0,VALID,98.9957,VALID,-0.0169808,VALID,20.1125,VALID,219,VALID,0,
2001-10-28, 00:17:00,VALID,917.942,VALID,0,VALID,99.002,VALID,0,VALID,20.1413,VALID,219,VALID,0,
2001-10-28, 00:18:00,VALID,917.915,VALID,0,VALID,99.0008,VALID,0,VALID,20.1483,VALID,219,VALID,0,
2001-10-28, 00:19:00,VALID,917.901,VALID,0,VALID,99.0059,VALID,0,VALID,20.1545,VALID,219,VALID,0,
2001-10-28, 00:20:00,VALID,917.883,VALID,0,VALID,99.0084,VALID,0,VALID,20.1644,VALID,219,VALID,0,
2001-10-28, 00:21:00,VALID,917.877,VALID,0,VALID,98.9919,VALID,-0.0169808,VALID,20.1512,VALID,219,VALID,0,
2001-10-28, 00:22:00,VALID,917.861,VALID,0,VALID,98.9792,VALID,-0.0169808,VALID,20.1448,VALID,219,VALID,0,
2001-10-28, 00:23:00,VALID,917.853,VALID,0,VALID,98.983,VALID,0,VALID,20.1154,VALID,219,VALID,0,
2001-10-28, 00:24:00,VALID,917.844,VALID,0,VALID,98.9792,VALID,-0.0339617,VALID,20.1063,VALID,219,VALID,0,
2001-10-28, 00:25:00,VALID,917.829,VALID,0,VALID,98.9741,VALID,-0.0339617,VALID,20.1063,VALID,219,VALID,0,
2001-10-28, 00:26:00,VALID,917.823,VALID,0,VALID,98.9868,VALID,-0.0509425,VALID,20.1256,VALID,219,VALID,0,
2001-10-28, 00:27:00,VALID,917.812,VALID,0,VALID,98.9881,VALID,0,VALID,20.1092,VALID,229,VALID,0,
2001-10-28, 00:28:00,VALID,917.793,VALID,0,VALID,98.9804,VALID,0,VALID,20.116,VALID,235,VALID,0,
2001-10-28, 00:29:00,VALID,917.783,VALID,0,VALID,98.9931,VALID,0,VALID,20.1219,VALID,235,VALID,0.00337838,
2001-10-28, 00:30:00,VALID,917.775,VALID,0,VALID,99.0084,VALID,0,VALID,20.1291,VALID,236,VALID,0.000195313,
2001-10-28, 00:31:00,VALID,917.756,VALID,0,VALID,98.9995,VALID,-0.0339617,VALID,20.1224,VALID,236,VALID,0.103566,
2001-10-28, 00:32:00,VALID,917.739,VALID,0.2,VALID,98.9919,VALID,-0.0339617,VALID,20.1227,VALID,244,VALID,0.126202,
2001-10-28, 00:33:00,VALID,917.724,VALID,0,VALID,98.9842,VALID,-0.0169808,VALID,20.109,VALID,244,VALID,0.0591216,
2001-10-28, 00:34:00,VALID,917.712,VALID,0,VALID,98.9753,VALID,0,VALID,20.0931,VALID,244,VALID,0.172276,
2001-10-28, 00:35:00,VALID,917.702,VALID,0,VALID,98.9703,VALID,-0.0169808,VALID,20.0866,VALID,246,VALID,0.221048,
2001-10-28, 00:36:00,VALID,917.674,VALID,0,VALID,98.9537,VALID,0,VALID,20.0481,VALID,296,VALID,0.392969,
2001-10-28, 00:37:00,VALID,917.666,VALID,0,VALID,98.941,VALID,0,VALID,20.025,VALID,65,VALID,0.435444,
2001-10-28, 00:38:00,VALID,917.64,VALID,0,VALID,98.9346,VALID,0,VALID,20.0024,VALID,61,VALID,0.51242,
2001-10-28, 00:39:00,VALID,917.62,VALID,0,VALID,98.9385,VALID,0,VALID,19.9768,VALID,54,VALID,0.562911,
2001-10-28, 00:40:00,VALID,917.601,VALID,0,VALID,98.9258,VALID,0,VALID,19.9477,VALID,48,VALID,0.64707,
2001-10-28, 00:41:00,VALID,917.59,VALID,0,VALID,98.9308,VALID,0.0169808,VALID,19.9147,VALID,48,VALID,0.657227,
2001-10-28, 00:42:00,VALID,917.571,VALID,0,VALID,98.9486,VALID,0,VALID,19.9216,VALID,49,VALID,0.770833,
2001-10-28, 00:43:00,VALID,917.547,VALID,0,VALID,98.9461,VALID,0.0169808,VALID,19.9122,VALID,55,VALID,0.734581,
2001-10-28, 00:44:00,VALID,917.551,VALID,0,VALID,98.9499,VALID,0,VALID,19.8729,VALID,70,VALID,0.655222,
2001-10-28, 00:45:00,VALID,917.539,VALID,0,VALID,98.9423,VALID,0.0169808,VALID,19.8732,VALID,70,VALID,0.547075,
2001-10-28, 00:46:00,VALID,917.555,VALID,0,VALID,98.9499,VALID,-0.0169808,VALID,19.8635,VALID,66,VALID,0.54603,
2001-10-28, 00:47:00,VALID,917.535,VALID,0,VALID,98.9728,VALID,0.0169808,VALID,19.8565,VALID,65,VALID,0.588942,
2001-10-28, 00:48:00,VALID,917.534,VALID,0,VALID,98.9804,VALID,-0.0679233,VALID,19.858,VALID,57,VALID,0.468533,
2001-10-28, 00:49:00,VALID,917.537,VALID,0,VALID,98.9779,VALID,-0.101885,VALID,19.8486,VALID,52,VALID,0.876953,
2001-10-28, 00:50:00,VALID,917.525,VALID,0,VALID,98.9664,VALID,-0.118866,VALID,19.8327,VALID,40,VALID,0.613181,
2001-10-28, 00:51:00,VALID,917.517,VALID,0,VALID,98.9817,VALID,-0.118866,VALID,19.8297,VALID,33,VALID,0.476774,
2001-10-28, 00:52:00,VALID,917.51,VALID,0,VALID,99.0008,VALID,-0.101885,VALID,19.8361,VALID,21,VALID,0.583734,
2001-10-28, 00:53:00,VALID,917.517,VALID,0,VALID,99.0224,VALID,-0.135847,VALID,19.856,VALID,14,VALID,0.481291,
2001-10-28, 00:54:00,VALID,917.516,VALID,0,VALID,99.0237,VALID,-0.101885,VALID,19.8553,VALID,18,VALID,0.408156,
2001-10-28, 00:55:00,VALID,917.521,VALID,0,VALID,99.0148,VALID,-0.101885,VALID,19.8488,VALID,16,VALID,0.488582,
2001-10-28, 00:56:00,VALID,917.508,VALID,0,VALID,99.0249,VALID,-0.101885,VALID,19.8359,VALID,14,VALID,0.544552,
2001-10-28, 00:57:00,VALID,917.514,VALID,0,VALID,99.0173,VALID,-0.135847,VALID,19.8396,VALID,13,VALID,0.390434,
2001-10-28, 00:58:00,VALID,917.495,VALID,0,VALID,99.0148,VALID,-0.118866,VALID,19.823,VALID,15,VALID,0.471955,
2001-10-28, 00:59:00,VALID,917.489,VALID,0,VALID,99.0071,VALID,-0.118866,VALID,19.8071,VALID,26,VALID,0.566934,
2001-10-28, 01:00:00,VALID,917.469,VALID,0,VALID,99.0109,VALID,-0.101885,VALID,19.8106,VALID,31,VALID,0.592231,
2001-10-28, 01:01:00,VALID,917.461,VALID,0,VALID,99.03,VALID,-0.101885,VALID,19.8068,VALID,45,VALID,0.44992,
2001-10-28, 01:02:00,VALID,917.449,VALID,0,VALID,99.0224,VALID,-0.101885,VALID,19.7971,VALID,56,VALID,0.585018,
2001-10-28, 01:03:00,VALID,917.421,VALID,0,VALID,99.0148,VALID,-0.0509425,VALID,19.8068,VALID,51,VALID,0.589648,
2001-10-28, 01:04:00,VALID,917.416,VALID,0,VALID,99.0326,VALID,-0.0169808,VALID,19.7862,VALID,51,VALID,0.553248,
2001-10-28, 01:05:00,VALID,917.393,VALID,0,VALID,99.044,VALID,0,VALID,19.7989,VALID,51,VALID,0.478733,
2001-10-28, 01:06:00,VALID,917.387,VALID,0,VALID,99.0529,VALID,0,VALID,19.8093,VALID,47,VALID,0.432566,
2001-10-28, 01:07:00,VALID,917.371,VALID,0,VALID,99.058,VALID,0,VALID,19.8123,VALID,47,VALID,0.326172,
2001-10-28, 01:08:00,VALID,917.354,VALID,0,VALID,99.0593,VALID,0,VALID,19.7989,VALID,47,VALID,0.285156,
2001-10-28, 01:09:00,VALID,917.345,VALID,0,VALID,99.0389,VALID,-0.0169808,VALID,19.7795,VALID,48,VALID,0.297081,
2001-10-28, 01:10:00,VALID,917.335,VALID,0,VALID,99.0211,VALID,-0.0169808,VALID,19.7738,VALID,48,VALID,0.233008,
2001-10-28, 01:11:00,VALID,917.317,VALID,0,VALID,99.0249,VALID,-0.0169808,VALID,19.7479,VALID,48,VALID,0.232973,
2001-10-28, 01:12:00,VALID,917.317,VALID,0,VALID,99.0287,VALID,-0.0339617,VALID,19.7415,VALID,49,VALID,0.262035,
2001-10-28, 01:13:00,VALID,917.297,VALID,0,VALID,99.0478,VALID,0,VALID,19.735,VALID,72,VALID,0.375217,
2001-10-28, 01:14:00,VALID,917.299,VALID,0,VALID,99.0453,VALID,0,VALID,19.7149,VALID,112,VALID,0.450521,
2001-10-28, 01:15:00,VALID,917.292,VALID,0,VALID,99.058,VALID,0,VALID,19.7216,VALID,84,VALID,0.131757,
2001-10-28, 01:16:00,VALID,917.285,VALID,0,VALID,99.0783,VALID,-0.0169808,VALID,19.738,VALID,97,VALID,0.286106,
2001-10-28, 01:17:00,VALID,917.287,VALID,0,VALID,99.0809,VALID,-0.0169808,VALID,19.7442,VALID,112,VALID,0.320694,
2001-10-28, 01:18:00,VALID,917.281,VALID,0,VALID,99.1012,VALID,-0.0169808,VALID,19.7638,VALID,113,VALID,0.191512,
2001-10-28, 01:19:00,VALID,917.285,VALID,0,VALID,99.1178,VALID,-0.0339617,VALID,19.7966,VALID,114,VALID,0.0730469,
2001-10-28, 01:20:00,VALID,917.273,VALID,0,VALID,99.1038,VALID,0,VALID,19.7897,VALID,123,VALID,0.0859375,
2001-10-28, 01:21:00,VALID,917.264,VALID,0,VALID,99.1152,VALID,-0.0169808,VALID,19.7964,VALID,123,VALID,0,
2001-10-28, 01:22:00,VALID,917.268,VALID,0,VALID,99.1127,VALID,-0.0339617,VALID,19.8093,VALID,123,VALID,0.000822368,
2001-10-28, 01:23:00,VALID,917.236,VALID,0,VALID,99.1127,VALID,-0.0169808,VALID,19.7989,VALID,123,VALID,0,
2001-10-28, 01:24:00,VALID,917.238,VALID,0,VALID,99.1089,VALID,0,VALID,19.8021,VALID,123,VALID,0,
2001-10-28, 01:25:00,VALID,917.231,VALID,0,VALID,99.1165,VALID,0,VALID,19.8384,VALID,123,VALID,0,
2001-10-28, 01:26:00,VALID,917.219,VALID,0,VALID,99.1165,VALID,0,VALID,19.857,VALID,123,VALID,0,
2001-10-28, 01:27:00,VALID,917.213,VALID,0,VALID,99.1228,VALID,0,VALID,19.861,VALID,123,VALID,0,
2001-10-28, 01:28:00,VALID,917.202,VALID,0,VALID,99.1152,VALID,0.0169808,VALID,19.8607,VALID,123,VALID,0,
2001-10-28, 01:29:00,VALID,917.187,VALID,0,VALID,99.1203,VALID,0,VALID,19.8607,VALID,123,VALID,0,
2001-10-28, 01:30:00,VALID,917.17,VALID,0,VALID,99.1101,VALID,-0.0169808,VALID,19.8637,VALID,123,VALID,0.0627056,
2001-10-28, 01:31:00,VALID,917.157,VALID,0,VALID,99.0949,VALID,-0.0169808,VALID,19.8573,VALID,123,VALID,0.225586,
2001-10-28, 01:32:00,VALID,917.149,VALID,0,VALID,99.0974,VALID,-0.0169808,VALID,19.8543,VALID,113,VALID,0.215255,
2001-10-28, 01:33:00,VALID,917.126,VALID,0,VALID,99.1152,VALID,-0.0339617,VALID,19.8737,VALID,85,VALID,0.383635,
2001-10-28, 01:34:00,VALID,917.116,VALID,0,VALID,99.1139,VALID,-0.0509425,VALID,19.854,VALID,71,VALID,0.377056,
2001-10-28, 01:35:00,VALID,917.096,VALID,0,VALID,99.0911,VALID,0,VALID,19.8446,VALID,63,VALID,0.296474,
2001-10-28, 01:36:00,VALID,917.096,VALID,0,VALID,99.1114,VALID,-0.0339617,VALID,19.8215,VALID,63,VALID,0.0701014,
2001-10-28, 01:37:00,VALID,917.078,VALID,0,VALID,99.0923,VALID,-0.0169808,VALID,19.825,VALID,63,VALID,0.000411184,
2001-10-28, 01:38:00,VALID,917.071,VALID,0,VALID,99.0771,VALID,-0.0339617,VALID,19.8028,VALID,63,VALID,0.177539,
2001-10-28, 01:39:00,VALID,917.059,VALID,0,VALID,99.0987,VALID,-0.0509425,VALID,19.8031,VALID,63,VALID,0.155599,
2001-10-28, 01:40:00,VALID,917.05,VALID,0,VALID,99.105,VALID,-0.0679233,VALID,19.7934,VALID,99,VALID,0.328547,
2001-10-28, 01:41:00,VALID,917.028,VALID,0,VALID,99.1,VALID,-0.0849042,VALID,19.7934,VALID,123,VALID,0.178454,
2001-10-28, 01:42:00,VALID,917.008,VALID,0,VALID,99.1127,VALID,-0.0679233,VALID,19.7934,VALID,128,VALID,0.168527,
2001-10-28, 01:43:00,VALID,917.004,VALID,0,VALID,99.1139,VALID,-0.0849042,VALID,19.8031,VALID,152,VALID,0.438978,
2001-10-28, 01:44:00,VALID,916.992,VALID,0,VALID,99.1127,VALID,-0.0509425,VALID,19.8028,VALID,154,VALID,0.421258,
2001-10-28, 01:45:00,VALID,916.983,VALID,0,VALID,99.105,VALID,-0.0169808,VALID,19.7927,VALID,152,VALID,0.622768,
2001-10-28, 01:46:00,VALID,916.968,VALID,0,VALID,99.1241,VALID,-0.0849042,VALID,19.8028,VALID,141,VALID,0.580929,
2001-10-28, 01:47:00,VALID,916.966,VALID,0,VALID,99.1114,VALID,-0.0339617,VALID,19.7996,VALID,139,VALID,0.557075,
2001-10-28, 01:48:00,VALID,916.957,VALID,0,VALID,99.1114,VALID,0.0169808,VALID,19.7924,VALID,140,VALID,0.578536,
2001-10-28, 01:49:00,VALID,916.968,VALID,0,VALID,99.1114,VALID,0.0509425,VALID,19.7827,VALID,141,VALID,0.487048,
2001-10-28, 01:50:00,VALID,916.971,VALID,0,VALID,99.1203,VALID,0.0339617,VALID,19.7862,VALID,134,VALID,0.405617,
2001-10-28, 01:51:00,VALID,916.971,VALID,0,VALID,99.1127,VALID,0.0679233,VALID,19.7693,VALID,140,VALID,0.538672,
2001-10-28, 01:52:00,VALID,916.965,VALID,0,VALID,99.105,VALID,0.0169808,VALID,19.7569,VALID,126,VALID,0.571715,
2001-10-28, 01:53:00,VALID,916.957,VALID,0,VALID,99.105,VALID,0.0339617,VALID,19.7405,VALID,136,VALID,0.647035,
2001-10-28, 01:54:00,VALID,916.959,VALID,0,VALID,99.1305,VALID,0.0169808,VALID,19.7405,VALID,102,VALID,0.734586,
2001-10-28, 01:55:00,VALID,916.946,VALID,0,VALID,99.1292,VALID,0.0339617,VALID,19.7367,VALID,113,VALID,0.801482,
2001-10-28, 01:56:00,VALID,916.943,VALID,0,VALID,99.1292,VALID,0.0679233,VALID,19.7268,VALID,104,VALID,0.894991,
2001-10-28, 01:57:00,VALID,916.922,VALID,0,VALID,99.1318,VALID,0.0849042,VALID,19.741,VALID,98,VALID,0.606445,
2001-10-28, 01:58:00,VALID,916.909,VALID,0,VALID,99.1228,VALID,0.0509425,VALID,19.7271,VALID,101,VALID,0.776521,
2001-10-28, 01:59:00,VALID,916.888,VALID,0,VALID,99.0974,VALID,0.0339617,VALID,19.6821,VALID,111,VALID,0.811098,
2001-10-28, 02:00:00,VALID,916.878,VALID,0,VALID,99.1127,VALID,0,VALID,19.6659,VALID,119,VALID,0.598684,
2001-10-28, 02:01:00,VALID,916.877,VALID,0,VALID,99.1165,VALID,0.0509425,VALID,19.6595,VALID,112,VALID,0.474805,
2001-10-28, 02:02:00,VALID,916.854,VALID,0,VALID,99.1318,VALID,0.0169808,VALID,19.6756,VALID,105,VALID,0.52168,
2001-10-28, 02:03:00,VALID,916.844,VALID,0,VALID,99.1203,VALID,-0.0169808,VALID,19.6478,VALID,100,VALID,0.65024,
2001-10-28, 02:04:00,VALID,916.821,VALID,0,VALID,99.1267,VALID,-0.0509425,VALID,19.6612,VALID,81,VALID,0.600946,
2001-10-28, 02:05:00,VALID,916.804,VALID,0,VALID,99.1139,VALID,-0.0679233,VALID,19.6381,VALID,98,VALID,0.854567,
2001-10-28, 02:06:00,VALID,916.79,VALID,0,VALID,99.119,VALID,-0.101885,VALID,19.6321,VALID,98,VALID,0.903646,
2001-10-28, 02:07:00,VALID,916.767,VALID,0,VALID,99.1279,VALID,-0.0679233,VALID,19.6284,VALID,99,VALID,0.871199,
2001-10-28, 02:08:00,VALID,916.759,VALID,0.2,VALID,99.1241,VALID,0,VALID,19.6319,VALID,98,VALID,0.915665,
2001-10-28, 02:09:00,VALID,916.743,VALID,0,VALID,99.1292,VALID,-0.0169808,VALID,19.622,VALID,97,VALID,1.01454,
2001-10-28, 02:10:00,VALID,916.739,VALID,0,VALID,99.1279,VALID,-0.0339617,VALID,19.612,VALID,94,VALID,0.749566,
2001-10-28, 02:11:00,VALID,916.731,VALID,0,VALID,99.1406,VALID,-0.0339617,VALID,19.6185,VALID,91,VALID,0.546675,
2001-10-28, 02:12:00,VALID,916.716,VALID,0,VALID,99.1419,VALID,-0.0339617,VALID,19.6252,VALID,86,VALID,0.951436,
2001-10-28, 02:13:00,VALID,916.705,VALID,0,VALID,99.1305,VALID,-0.0509425,VALID,19.6085,VALID,102,VALID,0.975561,
2001-10-28, 02:14:00,VALID,916.69,VALID,0,VALID,99.1343,VALID,-0.0509425,VALID,19.6028,VALID,115,VALID,0.894531,
2001-10-28, 02:15:00,VALID,916.677,VALID,0,VALID,99.1368,VALID,-0.0509425,VALID,19.6222,VALID,119,VALID,0.735328,
2001-10-28, 02:16:00,VALID,916.641,VALID,0,VALID,99.1496,VALID,-0.0509425,VALID,19.6192,VALID,121,VALID,1.00441,
2001-10-28, 02:17:00,VALID,916.629,VALID,0,VALID,99.1483,VALID,-0.0509425,VALID,19.6157,VALID,125,VALID,0.693834,
2001-10-28, 02:18:00,VALID,916.615,VALID,0,VALID,99.1419,VALID,-0.0169808,VALID,19.6085,VALID,118,VALID,1.07069,
2001-10-28, 02:19:00,VALID,916.619,VALID,0,VALID,99.1394,VALID,0.0339617,VALID,19.5988,VALID,111,VALID,1.1887,
2001-10-28, 02:20:00,VALID,916.607,VALID,0,VALID,99.1254,VALID,0.0679233,VALID,19.5889,VALID,110,VALID,1.144,
2001-10-28, 02:21:00,VALID,916.604,VALID,0,VALID,99.1406,VALID,0,VALID,19.5954,VALID,120,VALID,1.00109,
2001-10-28, 02:22:00,VALID,916.6,VALID,0,VALID,99.1356,VALID,0.0169808,VALID,19.582,VALID,114,VALID,1.0609,
2001-10-28, 02:23:00,VALID,916.608,VALID,0,VALID,99.1445,VALID,0.0339617,VALID,19.5884,VALID,129,VALID,0.919118,
2001-10-28, 02:24:00,VALID,916.609,VALID,0,VALID,99.1635,VALID,0.0339617,VALID,19.5946,VALID,132,VALID,0.789844,
2001-10-28, 02:25:00,VALID,916.614,VALID,0,VALID,99.1699,VALID,0.0679233,VALID,19.6075,VALID,130,VALID,0.871299,
2001-10-28, 02:26:00,VALID,916.601,VALID,0,VALID,99.1635,VALID,0.0509425,VALID,19.6242,VALID,134,VALID,0.756293,
2001-10-28, 02:27:00,VALID,916.597,VALID,0,VALID,99.1648,VALID,0.0679233,VALID,19.6172,VALID,143,VALID,1.00247,
2001-10-28, 02:28:00,VALID,916.576,VALID,0,VALID,99.1623,VALID,0.0509425,VALID,19.6274,VALID,151,VALID,1.15098,
2001-10-28, 02:29:00,VALID,916.559,VALID,0,VALID,99.1623,VALID,0.0509425,VALID,19.6175,VALID,145,VALID,1.22944,
2001-10-28, 02:30:00,VALID,916.552,VALID,0,VALID,99.161,VALID,0.0849042,VALID,19.614,VALID,147,VALID,1.01789,
2001-10-28, 02:31:00,VALID,916.538,VALID,0,VALID,99.1623,VALID,0.0509425,VALID,19.6172,VALID,147,VALID,1.02266,
2001-10-28, 02:32:00,VALID,916.525,VALID,0,VALID,99.161,VALID,0.0509425,VALID,19.6242,VALID,144,VALID,0.572917,
2001-10-28, 02:33:00,VALID,916.518,VALID,0,VALID,99.1674,VALID,-0.0169808,VALID,19.6249,VALID,139,VALID,1.09945,
2001-10-28, 02:34:00,VALID,916.495,VALID,0,VALID,99.1635,VALID,0,VALID,19.616,VALID,143,VALID,1.05903,
2001-10-28, 02:35:00,VALID,916.49,VALID,0,VALID,99.1648,VALID,0,VALID,19.6093,VALID,149,VALID,1.16987,
2001-10-28, 02:36:01,VALID,916.482,VALID,0,VALID,99.1534,VALID,-0.0339617,VALID,19.5993,VALID,142,VALID,1.24177,
2001-10-28, 02:37:01,VALID,916.464,VALID,0,VALID,99.1635,VALID,-0.0169808,VALID,19.6063,VALID,127,VALID,1.31039,
2001-10-28, 02:38:00,VALID,916.455,VALID,0,VALID,99.1763,VALID,0,VALID,19.6031,VALID,137,VALID,0.637195,
2001-10-28, 02:39:00,VALID,916.45,VALID,0,VALID,99.1724,VALID,0,VALID,19.616,VALID,138,VALID,0.553632,
2001-10-28, 02:40:01,VALID,916.433,VALID,0,VALID,99.1674,VALID,-0.0339617,VALID,19.6063,VALID,138,VALID,0.954297,
2001-10-28, 02:41:00,VALID,916.433,VALID,0.2,VALID,99.1813,VALID,0,VALID,19.6033,VALID,143,VALID,1.04407,
2001-10-28, 02:42:00,VALID,916.43,VALID,0,VALID,99.1763,VALID,-0.0169808,VALID,19.6031,VALID,132,VALID,0.77793,
2001-10-28, 02:43:00,VALID,916.421,VALID,0,VALID,99.1763,VALID,-0.0169808,VALID,19.5966,VALID,135,VALID,0.928043,
2001-10-28, 02:44:01,VALID,916.41,VALID,0,VALID,99.1864,VALID,0,VALID,19.5993,VALID,113,VALID,0.562706,
2001-10-28, 02:45:00,VALID,916.418,VALID,0,VALID,99.1826,VALID,0,VALID,19.5966,VALID,136,VALID,0.879645,
2001-10-28, 02:46:00,VALID,916.423,VALID,0,VALID,99.1826,VALID,0,VALID,19.5827,VALID,124,VALID,0.388867,
2001-10-28, 02:47:00,VALID,916.415,VALID,0,VALID,99.1788,VALID,0,VALID,19.5859,VALID,109,VALID,0.785807,
2001-10-28, 02:48:00,VALID,916.411,VALID,0,VALID,99.1763,VALID,0,VALID,19.5765,VALID,121,VALID,0.734797,
2001-10-28, 02:49:00,VALID,916.413,VALID,0,VALID,99.1826,VALID,-0.0169808,VALID,19.5829,VALID,107,VALID,0.954359,
2001-10-28, 02:50:01,VALID,916.4,VALID,0,VALID,99.1813,VALID,0,VALID,19.5797,VALID,117,VALID,0.888258,
2001-10-28, 02:51:00,VALID,916.401,VALID,0,VALID,99.1712,VALID,0,VALID,19.5767,VALID,109,VALID,0.776933,
2001-10-28, 02:52:00,VALID,916.389,VALID,0,VALID,99.1521,VALID,0,VALID,19.5641,VALID,113,VALID,1.08535,
2001-10-28, 02:53:00,VALID,916.394,VALID,0,VALID,99.1597,VALID,0,VALID,19.5569,VALID,124,VALID,0.726563,
2001-10-28, 02:54:01,VALID,916.373,VALID,0,VALID,99.1572,VALID,0,VALID,19.5504,VALID,112,VALID,1.10999,
2001-10-28, 02:55:01,VALID,916.365,VALID,0,VALID,99.1559,VALID,0,VALID,19.5834,VALID,123,VALID,0.5,
2001-10-28, 02:56:00,VALID,916.352,VALID,0,VALID,99.1635,VALID,0,VALID,19.5834,VALID,126,VALID,0.509215,
2001-10-28, 02:57:01,VALID,916.353,VALID,0,VALID,99.1508,VALID,-0.0169808,VALID,19.5862,VALID,123,VALID,0.846917,
2001-10-28, 02:58:00,VALID,916.341,VALID,0,VALID,99.1496,VALID,-0.0169808,VALID,19.5996,VALID,126,VALID,0.964638,
2001-10-28, 02:59:00,VALID,916.334,VALID,0,VALID,99.1521,VALID,0.0169808,VALID,19.5899,VALID,132,VALID,0.720508,
2001-10-28, 03:00:00,VALID,916.328,VALID,0,VALID,99.1381,VALID,0,VALID,19.606,VALID,115,VALID,0.841146,
2001-10-28, 03:01:01,VALID,916.306,VALID,0,VALID,99.133,VALID,0,VALID,19.5959,VALID,98,VALID,0.722128,
2001-10-28, 03:02:00,VALID,916.298,VALID,0,VALID,99.1241,VALID,0,VALID,19.5964,VALID,107,VALID,1.06229,
2001-10-28, 03:03:00,VALID,916.281,VALID,0,VALID,99.1368,VALID,0,VALID,19.5991,VALID,111,VALID,0.599777,
2001-10-28, 03:04:00,VALID,916.262,VALID,0,VALID,99.1267,VALID,0.0169808,VALID,19.5986,VALID,118,VALID,0.6875,
2001-10-28, 03:05:00,VALID,916.245,VALID,0,VALID,99.1343,VALID,-0.0169808,VALID,19.6192,VALID,79,VALID,0.388363,
2001-10-28, 03:06:00,VALID,916.229,VALID,0,VALID,99.1228,VALID,0,VALID,19.6254,VALID,111,VALID,0.783705,
2001-10-28, 03:07:00,VALID,916.213,VALID,0,VALID,99.1152,VALID,0,VALID,19.6026,VALID,102,VALID,0.735176,
2001-10-28, 03:08:00,VALID,916.207,VALID,0,VALID,99.1216,VALID,0,VALID,19.6252,VALID,97,VALID,0.679036,
2001-10-28, 03:09:00,VALID,916.186,VALID,0,VALID,99.1012,VALID,0.0169808,VALID,19.6351,VALID,91,VALID,0.570724,
2001-10-28, 03:10:00,VALID,916.166,VALID,0,VALID,99.0923,VALID,0,VALID,19.6222,VALID,115,VALID,0.859992,
2001-10-28, 03:11:00,VALID,916.166,VALID,0,VALID,99.0872,VALID,-0.0169808,VALID,19.619,VALID,130,VALID,0.812711,
2001-10-28, 03:12:00,VALID,916.151,VALID,0,VALID,99.086,VALID,0,VALID,19.6319,VALID,115,VALID,0.677148,
2001-10-28, 03:13:01,VALID,916.14,VALID,0,VALID,99.0758,VALID,0,VALID,19.6346,VALID,116,VALID,1.05889,
2001-10-28, 03:14:00,VALID,916.13,VALID,0,VALID,99.0605,VALID,0,VALID,19.6249,VALID,117,VALID,0.572115,
2001-10-28, 03:15:01,VALID,916.115,VALID,0,VALID,99.0542,VALID,0.0169808,VALID,19.6418,VALID,132,VALID,0.911318,
2001-10-28, 03:16:00,VALID,916.109,VALID,0,VALID,99.0466,VALID,-0.0169808,VALID,19.6349,VALID,119,VALID,0.765425,
2001-10-28, 03:17:00,VALID,916.113,VALID,0,VALID,99.0338,VALID,-0.0169808,VALID,19.6478,VALID,117,VALID,0.338465,
2001-10-28, 03:18:00,VALID,916.1,VALID,0,VALID,99.0313,VALID,0,VALID,19.6478,VALID,139,VALID,0.54375,
2001-10-28, 03:19:00,VALID,916.094,VALID,0,VALID,99.0097,VALID,0,VALID,19.6376,VALID,115,VALID,0.487664,
2001-10-28, 03:20:00,VALID,916.088,VALID,0,VALID,99.0148,VALID,0,VALID,19.6547,VALID,112,VALID,0.627604,
2001-10-28, 03:21:00,VALID,916.074,VALID,0,VALID,98.9919,VALID,0,VALID,19.6443,VALID,124,VALID,0.870477,
2001-10-28, 03:22:00,VALID,916.069,VALID,0,VALID,98.9842,VALID,-0.0169808,VALID,19.6379,VALID,128,VALID,0.571094,
2001-10-28, 03:23:00,VALID,916.058,VALID,0,VALID,98.9804,VALID,0,VALID,19.6475,VALID,127,VALID,0.364062,
2001-10-28, 03:24:01,VALID,916.041,VALID,0,VALID,98.9652,VALID,-0.0169808,VALID,19.6478,VALID,129,VALID,0.438902,
2001-10-28, 03:25:00,VALID,916.03,VALID,0,VALID,98.9652,VALID,0,VALID,19.6677,VALID,114,VALID,0.389597,
2001-10-28, 03:26:01,VALID,916.013,VALID,0,VALID,98.9639,VALID,0,VALID,19.6543,VALID,85,VALID,0.427083,
2001-10-28, 03:27:00,VALID,915.999,VALID,0,VALID,98.9436,VALID,0,VALID,19.657,VALID,67,VALID,0.521434,
2001-10-28, 03:28:01,VALID,915.984,VALID,0,VALID,98.9486,VALID,0,VALID,19.6766,VALID,67,VALID,0.464949,
2001-10-28, 03:29:00,VALID,915.973,VALID,0,VALID,98.9461,VALID,0,VALID,19.6769,VALID,64,VALID,0.550481,
2001-10-28, 03:30:00,VALID,915.956,VALID,0,VALID,98.9321,VALID,-0.0169808,VALID,19.6709,VALID,66,VALID,0.625,
2001-10-28, 03:31:01,VALID,915.966,VALID,0,VALID,98.9168,VALID,0,VALID,19.6744,VALID,77,VALID,0.558811,
2001-10-28, 03:32:00,VALID,915.955,VALID,0,VALID,98.9041,VALID,0,VALID,19.6416,VALID,88,VALID,0.654247,
2001-10-28, 03:33:00,VALID,915.961,VALID,0,VALID,98.8914,VALID,0,VALID,19.6349,VALID,85,VALID,0.631334,
2001-10-28, 03:34:00,VALID,915.946,VALID,0,VALID,98.8863,VALID,0,VALID,19.6314,VALID,85,VALID,0.547276,
2001-10-28, 03:35:00,VALID,915.953,VALID,0,VALID,98.8952,VALID,0.0169808,VALID,19.618,VALID,115,VALID,0.726768,
2001-10-28, 03:36:01,VALID,915.943,VALID,0,VALID,98.9016,VALID,0,VALID,19.6383,VALID,133,VALID,0.477896,